sat.trackr.live / text

‹ back to catalog

STARLINK-34106

NORAD 63907 · 2025-095T

PAYLOAD ACTIVE UNKNOWN

§ Identity

Operator
Country
US
Launch date
2025-05-10
Launch site
AFETR
Launch vehicle
Mass (kg)
RCS (m²)

Purposes: comms

External: N2YO · Heavens-Above · Gunter

§ Orbital elements

Epoch: 2026-09-20T02:21:20.128032Z

Period
94.27 min
Inclination
43.0104°
Eccentricity
0.0001374
Mean motion
15.27590942 rev/d
Perigee alt
482.1 km
Apogee alt
484.0 km
Semi-major
6,861.2 km
B*
3.9942e-4
RAAN
157.9791°
Arg perigee
251.0806°
Mean anomaly
108.9897°
Rev number
7,751

§ Raw data

STARLINK-341061 63907U 25095T   26263.09814963  .00010749  00000+0  39942-3 0  99952 63907  43.0104 157.9791 0001374 251.0806 108.9897 15.27590942 77511

JSON: /api/v1/satellites/63907 · /tle

For live sub-satellite position, see the globe view (requires WebGL).

§ Visibility from observer

Set your observer location to see the next 7 days of passes ≥ 10°. The values pass through the URL so the page stays shareable.

No JS? Fill the form by hand. The geolocation button needs JavaScript.